EW5586 Weather Reports


time (UTC)temp
C
wind
direction
speed
KPH
gust
KPH
rain 1hr
cm
rain 24hr
cm
rain mn
cm
humidity
%
barometer
mb
20260905085820 -17 0.0 0.0 0.00 0.00 0.00 1012.1
20260905084720 -17 0.0 0.0 0.00 0.00 0.00 1012.0
20260905084215 -17 0.0 0.0 0.00 0.00 0.00 1012.1
20260905083650 -17 0.0 0.0 0.00 0.00 0.00 1012.1
20260905083106 -17 0.0 0.0 0.00 0.00 0.00 1012.1
20260905081413 -17 0.0 0.0 0.00 0.00 0.00 1012.0
20260905080817 16 355 0.0 0.0 0.00 0.00 0.00 93 1011.9
20260905080316 16 355 0.0 0.0 0.00 0.00 0.00 93 1011.9
20260905075808 16 355 0.0 0.0 0.00 0.00 0.00 93 1011.9
20260905074758 16 355 0.0 0.0 0.00 0.00 0.00 93 1011.9
20260905074256 16 355 0.0 0.0 0.00 0.00 0.00 93 1011.9
20260905073756 16 355 0.0 0.0 0.00 0.00 0.00 93 1011.9
20260905073257 16 355 0.0 0.0 0.00 0.00 0.00 93 1011.9
20260905072754 16 355 0.0 0.0 0.00 0.00 0.00 93 1011.9
20260905072252 16 0 0.0 0.0 0.00 0.00 0.00 93 1011.9
20260905071752 16 0 0.0 0.0 0.00 0.00 0.00 92 1011.9
20260905070748 16 5 0.0 0.0 0.00 0.00 0.00 92 1011.8
20260905070246 16 0 0.0 0.0 0.00 0.00 0.00 92 1011.8
20260905065746 16 9 0.0 0.0 0.00 0.00 0.00 92 1011.7
20260905065247 16 355 0.0 0.0 0.00 0.00 0.00 92 1011.8
20260905064746 16 9 0.0 0.0 0.00 0.00 0.00 92 1011.8
20260905064247 16 348 0.0 0.0 0.00 0.00 0.00 91 1011.8
20260905063747 17 355 0.0 0.0 0.00 0.00 0.00 91 1011.9
20260905062242 17 0 0.0 1.6 0.00 0.00 0.00 91 1012.0
20260905061743 17 5 0.0 1.6 0.00 0.00 0.00 91 1012.0
20260905061242 17 5 0.0 0.0 0.00 0.00 0.00 91 1011.9
20260905060740 17 0 0.0 0.0 0.00 0.00 0.00 91 1011.9
20260905060240 17 9 0.0 0.0 0.00 0.00 0.00 90 1011.9
20260905055741 17 355 0.0 0.0 0.00 0.00 0.00 90 1011.9
20260905054739 17 0 0.0 0.0 0.00 0.00 0.00 90 1012.0
20260905054240 17 0 0.0 0.0 0.00 0.00 0.00 90 1012.1
20260905053740 17 0 0.0 0.0 0.00 0.00 0.00 90 1012.1
20260905052741 17 10 0.0 0.0 0.00 0.00 0.00 90 1012.1
20260905052240 17 5 0.0 0.0 0.00 0.00 0.00 90 1012.2
20260905051736 17 5 0.0 0.0 0.00 0.00 0.00 90 1012.2
20260905051237 17 355 0.0 0.0 0.00 0.00 0.00 89 1012.2
20260905045236 17 5 0.0 0.0 0.00 0.00 0.00 89 1012.4
20260905044736 17 9 0.0 0.0 0.00 0.00 0.00 89 1012.3
20260905044236 17 0 0.0 0.0 0.00 0.00 0.00 88 1012.3
20260905043232 17 9 0.0 0.0 0.00 0.00 0.00 88 1012.2
20260905042232 17 0 0.0 0.0 0.00 0.00 0.00 87 1012.2
20260905041733 17 0 0.0 0.0 0.00 0.00 0.00 87 1012.2
20260905041232 17 355 0.0 0.0 0.00 0.00 0.00 87 1012.1
20260905040732 18 355 0.0 0.0 0.00 0.00 0.00 87 1012.2
20260905040232 18 355 0.0 0.0 0.00 0.00 0.00 87 1012.2
20260905035232 18 355 0.0 0.0 0.00 0.00 0.00 86 1012.2
20260905034732 18 5 0.0 0.0 0.00 0.00 0.00 86 1012.2
20260905034232 18 0 0.0 0.0 0.00 0.00 0.00 86 1012.2
20260905033732 18 0 0.0 0.0 0.00 0.00 0.00 86 1012.3
20260905033232 18 5 0.0 0.0 0.00 0.00 0.00 86 1012.3
20260905032232 18 12 0.0 0.0 0.00 0.00 0.00 86 1012.3
20260905031228 18 9 0.0 0.0 0.00 0.00 0.00 85 1012.4
20260905030726 18 351 0.0 0.0 0.00 0.00 0.00 85 1012.3
20260905030225 18 355 0.0 0.0 0.00 0.00 0.00 85 1012.4
20260905025725 18 339 0.0 0.0 0.00 0.00 0.00 85 1012.5
20260905025226 18 339 0.0 0.0 0.00 0.00 0.00 85 1012.5
20260905024725 18 18 0.0 0.0 0.00 0.00 0.00 85 1012.5
20260905024223 18 23 0.0 0.0 0.00 0.00 0.00 85 1012.5
20260905023224 18 351 0.0 0.0 0.00 0.00 0.00 85 1012.5
20260905022722 18 355 0.0 0.0 0.00 0.00 0.00 85 1012.5
20260905022218 18 355 0.0 0.0 0.00 0.00 0.00 85 1012.5
20260905021718 18 351 0.0 0.0 0.00 0.00 0.00 85 1012.5
20260905021220 18 0 0.0 0.0 0.00 0.00 0.00 85 1012.5
20260905020718 18 0 0.0 0.0 0.00 0.00 0.00 85 1012.6
20260905020215 18 5 0.0 0.0 0.00 0.00 0.00 85 1012.7
20260905015712 18 5 0.0 0.0 0.00 0.00 0.00 85 1012.7
20260905015211 18 355 0.0 0.0 0.00 0.00 0.00 85 1012.7
20260905014710 18 0 0.0 4.8 0.00 0.00 0.00 85 1012.8
20260905012655 18 338 0.0 0.0 0.00 0.00 0.00 85 1012.8
20260905012148 18 344 0.0 0.0 0.00 0.00 0.00 85 1012.9
20260905011641 18 0 0.0 0.0 0.00 0.00 0.00 85 1012.8
20260905011141 18 5 0.0 0.0 0.00 0.00 0.00 84 1012.8
20260905010640 18 333 0.0 0.0 0.00 0.00 0.00 84 1012.8
20260905005640 18 355 0.0 1.6 0.00 0.00 0.00 83 1012.7
20260905005138 19 355 0.0 1.6 0.00 0.00 0.00 83 1012.6
20260905004634 19 355 0.0 0.0 0.00 0.00 0.00 82 1012.6
20260905004134 19 355 0.0 0.0 0.00 0.00 0.00 81 1012.6
20260905003633 19 355 0.0 0.0 0.00 0.00 0.00 81 1012.5
20260905003135 19 355 0.0 0.0 0.00 0.00 0.00 81 1012.3
20260905002634 19 355 0.0 0.0 0.00 0.00 0.00 81 1012.3
20260905002134 19 355 0.0 0.0 0.00 0.00 0.00 80 1012.2
20260905001634 19 5 0.0 0.0 0.00 0.00 0.00 80 1012.3
20260905001135 19 355 0.0 0.0 0.00 0.00 0.00 80 1012.2
20260905000634 19 355 0.0 0.0 0.00 0.00 0.00 79 1012.1
20260904235635 20 5 0.0 3.2 0.00 0.00 0.00 78 1011.9
20260904235135 20 5 0.0 1.6 0.00 0.00 0.00 77 1011.8
20260904234634 20 0 0.0 0.0 0.00 0.00 0.00 76 1011.7
20260904233130 20 0 1.6 4.8 0.00 0.00 0.00 73 1011.6
20260904232629 21 5 0.0 4.8 0.00 0.00 0.00 73 1011.5
20260904232128 21 355 0.0 11.3 0.00 0.00 0.00 72 1011.7
20260904231128 21 18 3.2 8.0 0.00 0.00 0.00 72 1011.6
20260904230628 21 355 3.2 11.3 0.00 0.00 0.00 72 1011.6
20260904225626 21 12 0.0 0.0 0.00 0.00 0.00 71 1011.6
20260904225126 21 18 0.0 0.0 0.00 0.00 0.00 71 1011.6
20260904224626 22 355 0.0 0.0 0.00 0.00 0.00 71 1011.5
20260904223121 22 355 1.6 8.0 0.00 0.00 0.00 70 1011.5
20260904222620 22 340 0.0 4.8 0.00 0.00 0.00 70 1011.6
20260904222117 22 355 1.6 11.3 0.00 0.00 0.00 70 1011.7
20260904220616 22 350 3.2 9.7 0.00 0.00 0.00 70 1011.8
20260904220116 22 313 3.2 11.3 0.00 0.00 0.00 70 1011.7
20260904215616 22 11 1.6 11.3 0.00 0.00 0.00 71 1011.8
20260904215115 22 5 1.6 8.0 0.00 0.00 0.00 70 1011.7
20260904214610 22 10 3.2 11.3 0.00 0.00 0.00 70 1011.7
20260904213557 22 15 0.0 1.6 0.00 0.00 0.00 70 1011.7
20260904212039 23 15 6.4 14.5 0.00 0.00 0.00 66 1011.6
20260904211533 23 14 3.2 12.9 0.00 0.00 0.00 66 1011.6
20260904211028 23 36 4.8 14.5 0.00 0.00 0.00 65 1011.6
20260904210521 23 348 4.8 14.5 0.00 0.00 0.00 66 1011.7
20260904205003 24 9 4.8 14.5 0.00 0.00 0.00 66 1011.7
20260904204457 24 355 1.6 12.9 0.00 0.00 0.00 67 1011.7
20260904203952 23 324 0.0 8.0 0.00 0.00 0.00 67 1011.6
20260904203445 23 351 1.6 8.0 0.00 0.00 0.00 67 1011.7
20260904202940 23 17 3.2 12.9 0.00 0.00 0.00 66 1011.7
20260904202434 23 329 3.2 12.9 0.00 0.00 0.00 65 1011.8
20260904201926 24 355 3.2 12.9 0.00 0.00 0.00 66 1011.7
20260904201421 24 0 4.8 12.9 0.00 0.00 0.00 66 1011.8
20260904200915 23 0 3.2 12.9 0.00 0.00 0.00 66 1011.8
20260904200410 23 24 1.6 14.5 0.00 0.00 0.00 70 1011.9
20260904195903 23 325 1.6 14.5 0.00 0.00 0.00 67 1012.0
20260904195357 23 11 0.0 1.6 0.00 0.00 0.00 71 1012.1
20260904194346 23 0 0.0 6.4 0.00 0.00 0.00 67 1012.2
20260904193840 23 16 3.2 14.5 0.00 0.00 0.00 68 1012.2
20260904193334 23 5 6.4 16.1 0.00 0.00 0.00 66 1012.1
20260904192321 23 338 6.4 19.3 0.00 0.00 0.00 67 1012.0
20260904191815 23 355 6.4 14.5 0.00 0.00 0.00 67 1012.0
20260904191309 23 5 6.4 16.1 0.00 0.00 0.00 65 1012.1
20260904190803 24 333 3.2 16.1 0.00 0.00 0.00 65 1012.1
20260904190259 24 348 3.2 16.1 0.00 0.00 0.00 65 1012.1
20260904185752 24 355 3.2 16.1 0.00 0.00 0.00 65 1012.2
20260904185245 24 332 1.6 16.1 0.00 0.00 0.00 64 1012.2
20260904184233 24 304 3.2 16.1 0.00 0.00 0.00 69 1012.3
20260904183727 23 17 4.8 16.1 0.00 0.00 0.00 68 1012.3
20260904183221 23 0 3.2 12.9 0.00 0.00 0.00 68 1012.3
20260904182715 23 11 1.6 8.0 0.00 0.00 0.00 71 1012.4
20260904182210 23 306 1.6 12.9 0.00 0.00 0.00 70 1012.3
20260904181703 23 350 4.8 14.5 0.00 0.00 0.00 69 1012.4
20260904181158 23 355 3.2 14.5 0.00 0.00 0.00 67 1012.4
20260904180651 23 22 0.0 0.0 0.00 0.00 0.00 69 1012.3
20260904180149 23 355 0.0 0.0 0.00 0.00 0.00 76 1012.3
20260904175650 23 355 0.0 0.0 0.00 0.00 0.00 70 1012.3
20260904175147 23 340 0.0 6.4 0.00 0.00 0.00 69 1012.3
20260904174647 23 0 1.6 16.1 0.00 0.00 0.00 69 1012.4
20260904174148 23 22 1.6 16.1 0.00 0.00 0.00 70 1012.5
20260904173645 24 355 0.0 0.0 0.00 0.00 0.00 69 1012.5
20260904173145 24 0 1.6 11.3 0.00 0.00 0.00 71 1012.5
20260904172646 23 351 4.8 17.7 0.00 0.00 0.00 72 1012.5
20260904172145 23 5 8.0 17.7 0.00 0.00 0.00 70 1012.6
20260904171646 24 0 6.4 17.7 0.00 0.00 0.00 67 1012.6
20260904170645 24 350 6.4 17.7 0.00 0.00 0.00 69 1012.5
20260904170143 24 17 6.4 17.7 0.00 0.00 0.00 70 1012.5
20260904165644 24 0 3.2 16.1 0.00 0.00 0.00 70 1012.5
20260904165143 23 26 3.2 11.3 0.00 0.00 0.00 73 1012.5
20260904164143 23 13 3.2 14.5 0.00 0.00 0.00 70 1012.7
20260904163644 23 355 3.2 9.7 0.00 0.00 0.00 73 1012.6
20260904163141 23 5 3.2 9.7 0.00 0.00 0.00 74 1012.7
20260904162642 23 346 3.2 16.1 0.00 0.00 0.00 71 1012.8
20260904162141 23 248 4.8 16.1 0.00 0.00 0.00 74 1012.8
20260904161640 23 11 4.8 16.1 0.00 0.00 0.00 71 1012.8
20260904161139 23 11 3.2 16.1 0.00 0.00 0.00 73 1012.8
20260904160639 23 5 4.8 12.9 0.00 0.00 0.00 71 1012.8
20260904160137 23 355 3.2 12.9 0.00 0.00 0.00 70 1012.7
20260904155640 23 331 0.0 6.4 0.00 0.00 0.00 74 1012.8
20260904155138 23 5 1.6 8.0 0.00 0.00 0.00 72 1012.7
20260904154635 23 355 3.2 11.3 0.00 0.00 0.00 74 1012.7
20260904154135 23 29 3.2 11.3 0.00 0.00 0.00 71 1012.7
20260904153635 23 263 1.6 11.3 0.00 0.00 0.00 74 1012.7
20260904153137 23 355 1.6 11.3 0.00 0.00 0.00 73 1012.7
20260904152131 23 334 1.6 11.3 0.00 0.00 0.00 77 1012.7
20260904151629 23 12 0.0 11.3 0.00 0.00 0.00 76 1012.8
20260904151129 23 0 1.6 12.9 0.00 0.00 0.00 76 1012.9
20260904150629 23 340 1.6 12.9 0.00 0.00 0.00 76 1012.9
20260904150130 23 9 0.0 12.9 0.00 0.00 0.00 76 1012.9
20260904145629 23 220 0.0 8.0 0.00 0.00 0.00 80 1012.9
20260904145129 22 336 1.6 8.0 0.00 0.00 0.00 78 1012.9
20260904143629 22 319 1.6 14.5 0.00 0.00 0.00 80 1013.0
20260904142625 21 274 4.8 16.1 0.00 0.00 0.00 84 1013.2
20260904142125 21 346 4.8 19.3 0.00 0.00 0.00 83 1013.1
20260904141625 20 320 3.2 19.3 0.00 0.00 0.00 83 1013.2
20260904141125 20 47 4.8 14.5 0.00 0.00 0.00 85 1013.2
20260904135625 20 14 1.6 8.0 0.00 0.00 0.00 89 1013.2
20260904134626 19 346 0.0 9.7 0.00 0.00 0.00 90 1013.1
20260904134121 18 355 0.0 0.0 0.00 0.00 0.00 91 1013.1
20260904132121 18 350 0.0 0.0 0.00 0.00 0.00 93 1013.1
20260904131121 18 302 0.0 0.0 0.00 0.00 0.00 93 1013.0
20260904130621 18 0 0.0 0.0 0.00 0.00 0.00 93 1013.0
20260904130122 17 5 0.0 0.0 0.00 0.00 0.00 94 1012.9
20260904125617 17 19 0.0 0.0 0.00 0.00 0.00 94 1013.0
20260904125118 17 339 0.0 0.0 0.00 0.00 0.00 95 1013.0
20260904124617 17 12 0.0 0.0 0.00 0.00 0.00 95 1013.1
20260904124117 17 0 0.0 0.0 0.00 0.00 0.00 95 1013.2
20260904123618 17 340 0.0 0.0 0.00 0.00 0.00 95 1013.1
20260904123117 17 332 0.0 0.0 0.00 0.00 0.00 96 1013.0
20260904122618 17 10 0.0 0.0 0.00 0.00 0.00 96 1012.9
20260904122118 17 330 0.0 0.0 0.00 0.00 0.00 96 1013.1
20260904121617 17 355 0.0 0.0 0.00 0.00 0.00 96 1013.0
20260904121113 16 355 0.0 0.0 0.00 0.00 0.00 96 1013.0
20260904120613 16 355 0.0 0.0 0.00 0.00 0.00 96 1013.0
20260904120114 16 355 0.0 0.0 0.00 0.00 0.00 96 1013.0
20260904115612 16 17 0.0 0.0 0.00 0.00 0.00 96 1013.0
20260904115112 16 18 0.0 0.0 0.00 0.00 0.00 96 1013.0
20260904114110 16 0 0.0 0.0 0.00 0.00 0.00 96 1012.9
20260904113607 16 15 0.0 0.0 0.00 0.00 0.00 96 1012.7
20260904113106 16 5 0.0 0.0 0.00 0.00 0.00 96 1012.8
20260904112608 16 0 0.0 0.0 0.00 0.00 0.00 96 1012.8
20260904112105 16 355 0.0 0.0 0.00 0.00 0.00 96 1012.8
20260904111601 16 355 0.0 0.0 0.00 0.00 0.00 96 1012.8
20260904111059 16 355 0.0 0.0 0.00 0.00 0.00 96 1012.7
20260904110559 16 355 0.0 0.0 0.00 0.00 0.00 96 1012.7
20260904105549 -17 355 0.0 0.0 0.00 0.00 0.00 1012.6
20260904105023 -17 0.0 0.0 0.00 0.00 0.00 1012.6
20260904104521 -17 0.0 0.0 0.00 0.00 0.00 1012.5
20260904102325 -17 0.0 0.0 0.00 0.00 0.00 1012.1
20260904101821 -17 0.0 0.0 0.00 0.00 0.00 1012.1
20260904101225 -17 0.0 0.0 0.00 0.00 0.00 1012.1
20260904100215 -17 0.0 0.0 0.00 0.00 0.00 1012.1
20260904095713 -17 0.0 0.0 0.00 0.00 0.00 1012.1
20260904094616 -17 0.0 0.0 0.00 0.00 0.00 1011.9
20260904094020 -17 0.0 0.0 0.00 0.00 0.00 1011.9
20260904093519 -17 0.0 0.0 0.00 0.00 0.00 1011.8
20260904093009 -17 0.0 0.0 0.00 0.00 0.00 1011.8
20260904092423 -17 0.0 0.0 0.00 0.00 0.00 1011.8
20260904091921 -17 0.0 0.0 0.00 0.00 0.00 1011.8
20260904091412 -17 0.0 0.0 0.00 0.00 0.00 1011.7
20260904090824 -17 0.0 0.0 0.00 0.00 0.00 1011.7
20260904090317 -17 0.0 0.0 0.00 0.00 0.00 1011.6